EW4694 Weather Reports


Display with metric or nautical units.
time (UTC)temp
F
wind
direction
speed
MPH
gust
MPH
rain 1hr
in
rain 24hr
in
rain mn
in
humidity
%
barometer
mb
20260901163022 86 230 0.0 0.0 0.00 0.00 0.00 63 1018.7
20260901161514 86 261 0.0 2.0 0.00 0.00 0.00 63 1018.5
20260901160113 85 297 0.0 0.0 0.00 0.00 0.00 62 1018.6
20260901154548 85 284 0.0 0.0 0.00 0.00 0.00 62 1018.6
20260901153026 85 257 0.0 0.0 0.00 0.00 0.00 60 1018.6
20260901151523 84 225 0.0 0.0 0.00 0.00 0.00 55 1018.7
20260901144555 81 298 0.0 0.0 0.00 0.00 0.00 35 1018.9
20260901143033 79 273 0.0 0.0 0.00 0.00 0.00 1 1019.0
20260901141528 78 247 0.0 0.0 0.00 0.00 0.00 1 1019.1
20260901140005 77 153 0.0 0.0 0.00 0.00 0.00 1 1019.3
20260901134601 76 186 0.0 0.0 0.00 0.00 0.00 1 1019.4
20260901133042 75 184 0.0 0.0 0.00 0.00 0.00 1 1019.6
20260901131538 74 101 0.0 0.0 0.00 0.00 0.00 1 1019.7
20260901130027 73 16 0.0 0.0 0.00 0.00 0.00 1 1019.7
20260901124525 72 16 0.0 0.0 0.00 0.00 0.00 1 1019.9
20260901123032 71 16 0.0 0.0 0.00 0.00 0.00 1 1019.7
20260901121507 70 16 0.0 0.0 0.00 0.00 0.00 1 1019.6
20260901120005 68 16 0.0 0.0 0.00 0.00 0.00 1 1019.4
20260901114607 67 16 0.0 0.0 0.00 0.00 0.00 1 1019.2
20260901113101 0 0.0 0.0 0.00 0.00 0.00 1019.0
20260901111604 0 0.0 0.0 0.00 0.00 0.00 1018.9
20260901110046 0 0.0 0.0 0.00 0.00 0.00 1018.8
20260901104524 0 0.0 0.0 0.00 0.00 0.00 1018.7
20260901103020 0 0.0 0.0 0.00 0.00 0.00 1018.7
20260901101558 0 0.0 0.0 0.00 0.00 0.00 1018.5
20260901100056 0 0.0 0.0 0.00 0.00 0.00 1018.5
20260901094531 0 0.0 0.0 0.00 0.00 0.00 1018.4
20260901093027 0 0.0 0.0 0.00 0.00 0.00 1018.4
20260901091505 0 0.0 0.0 0.00 0.00 0.00 1018.3
20260901090005 68 16 0.0 0.0 0.00 0.00 0.00 1 1018.5
20260901084540 68 16 0.0 0.0 0.00 0.00 0.00 1 1018.6
20260901083036 68 16 0.0 0.0 0.00 0.00 0.00 1 1018.5
20260901081516 68 16 0.0 0.0 0.00 0.00 0.00 1 1018.5
20260901080014 68 16 0.0 0.0 0.00 0.00 0.00 1 1018.5
20260901074549 69 16 0.0 0.0 0.00 0.00 0.00 1 1018.4
20260901073044 69 16 0.0 0.0 0.00 0.00 0.00 1 1018.4
20260901071522 69 16 0.0 0.0 0.00 0.00 0.00 1 1018.8
20260901070018 69 16 0.0 0.0 0.00 0.00 0.00 1 1018.8
20260901064557 69 16 0.0 0.0 0.00 0.00 0.00 1 1018.7
20260901063105 69 16 0.0 0.0 0.00 0.00 0.00 1 1018.6
20260901061543 68 16 0.0 0.0 0.00 0.00 0.00 1 1018.6
20260901060032 68 16 0.0 0.0 0.00 0.00 0.00 1 1018.7
20260901054528 68 16 0.0 0.0 0.00 0.00 0.00 1 1018.8
20260901053025 68 16 0.0 0.0 0.00 0.00 0.00 1 1019.0
20260901051529 69 16 0.0 0.0 0.00 0.00 0.00 1 1018.9
20260901050014 69 16 0.0 0.0 0.00 0.00 0.00 1 1018.8
20260901044510 69 16 0.0 0.0 0.00 0.00 0.00 1 1018.7
20260901043008 69 16 0.0 0.0 0.00 0.00 0.00 1 1018.7
20260901041544 69 16 0.0 0.0 0.00 0.00 0.00 1 1018.7
20260901040042 69 16 0.0 0.0 0.00 0.00 0.00 1 1018.7
20260901034518 69 16 0.0 0.0 0.00 0.00 0.00 1 1018.8